STARLINK-35437

Satellite information

Favourite Embed

Satellite Type and Status

PAYLOADIN ORBIT

Key statistics

Satellite STARLINK-35437 at a glance.

Uptime

30

Days in orbit

Revolutions

≈ 15.6

Per day

Orbit

LEO

Low Earth Orbit

Inclination

43.0

Latest

Satellite identification and parameters

Extended collection of information and parameters for STARLINK-35437.

Object identification

Identified? True

Debris? False

Object name: STARLINK-35437

International designator: 2025-268G

Object number (NORAD): 66563

Object ID (CCSDS): 66563

Country: UNITED STATES OF AMERICA (US)

Current information (Y/N): Y

Orbital parameters

Period: 92.518 minutes

Inclination: 43.0016 deg

SMA: 6776.082 km

Apoapsis: 399.055 km

Periapsis: 396.838 km

RAAN: 73.3072 deg

Eccentricy: 0.00016356

Argument of periapsis: 263.1418 deg

Mean anomaly: 203.8956 deg

Mean motion: 15.56448704 rev/day

Mean motion (dot): -0.00107915 rev/day2

B* drag term: -0.0015005746 1/REarth

Two-line elements (TLE)

Creation date: Dec. 21, 2025, 3:42 a.m.

Reference frame: TEME

Reference center: EARTH

Epoch: Dec. 20, 2025, 10 p.m. UTC

TLE line 0: 0 STARLINK-35437

TLE line 1: 1 66563U 25268G 25354.91668981 -.00107915 00000-0 -15006-2 0 9995

TLE line 2: 2 66563 43.0016 73.3072 0001636 263.1418 203.8956 15.56448704 5984

Live tracking on map

Real-time ground track for satellite STARLINK-35437.

In-orbit conjunctions

There are no conjunctions computed for STARLINK-35437, at the moment. Check back to stay up to date, as we update our databases every day.

Go to all conjunctions

Associated space launch

A batch of 29 satellites for the Starlink mega-constellation - SpaceX's project for space-based Internet communication system.

STARLINK-35437 was lifted into orbit during the mission ‘Falcon 9 Block 5 | Starlink Group 6-78’, on board a Falcon 9 space rocket.

The launch took place on Nov. 21, 2025, 3:39 a.m. from Launch Complex 39A.

For more information about the launch, click the button.

Launch to space Falcon 9 Block 5 | Starlink Group 6-78
Falcon 9 Block 5 | Starlink Group 6-78

Agency: SpaceX

Status: Launch Successful

Launch date: Nov. 21, 2025, 3:39 a.m. UTC

Rocket: Falcon 9

Launch pad: Launch Complex 39A

Location: Kennedy Space Center, FL, USA

...

Latest news about this satellite

News about space launch
Florida Space Coast tops 100 launches as Space Force pushes for range upgrades

Col. Brian Chatman: The volume is here to stay. The next step is making sure the infrastructure can keep up The post Florida Space Coast tops 100 launches as Space Force pushes for range upgrades appeared first on SpaceNews.

News about space launch
Live coverage: Falcon 9 Starlink mission marks 100th launch of the year from Florida’s Space Coast

The Starlink 6-78 mission, carrying 29 satellites for SpaceX’s internet service, is targeted to roar away from launch complex 39A at 10:12 p.m. EST (0321 UTC).

News about space launch
Launch Roundup: Innospace to debut new rocket, SpaceX to launch five Falcon 9 missions

Another busy week of launches has arrived, with SpaceX planning to launch five Falcon 9… The post Launch Roundup: Innospace to debut new rocket, SpaceX to launch five Falcon 9 missions appeared first on NASASpaceFlight.com.


Newsletter sign-up

Weekly statistics, charts and insights to help you stay on top of the space industry.